Location: Unspecified
(0.0000°N, 0.0000°E)
Time: 12:28:09
(UTC+00:00)

DMSP 5D-3 F19 (USA 249) - Visible Passes

Search period start: 25 April 2019 00:00
Search period end: 05 May 2019 00:00
Orbit: 837 x 854 km, 98.8° (Epoch: 24 April)

Date Brightness Start Highest point End Pass type
(mag) Time Alt. Az. Time Alt. Az. Time Alt. Az.
25 Apr ? 18:24:38 10° S 18:30:08 81° WSW 18:35:35 10° NNW visible
26 Apr ? 05:29:07 10° NE 05:33:16 22° ESE 05:37:26 10° SSE visible
27 Apr ? 05:16:58 10° ENE 05:20:07 16° ESE 05:23:16 10° SE visible
27 Apr ? 19:43:16 10° WSW 19:44:04 10° WSW 19:44:52 10° W visible
28 Apr ? 05:06:09 10° E 05:06:59 10° ESE 05:07:48 10° ESE visible
28 Apr ? 19:27:47 10° SW 19:30:55 16° WSW 19:34:04 10° WNW visible
29 Apr ? 19:13:37 10° SSW 19:17:47 22° WSW 19:21:55 10° NW visible
30 Apr ? 18:59:49 10° SSW 19:04:37 31° WSW 19:09:24 10° NW visible
01 May ? 18:46:16 10° S 18:51:27 45° WSW 18:56:37 10° NNW visible
02 May ? 18:32:52 10° S 18:38:17 64° WSW 18:43:40 10° NNW visible
03 May ? 18:19:38 10° SSE 18:25:07 89° ENE 18:30:34 10° NNW visible
04 May ? 05:24:24 10° ENE 05:28:16 20° ESE 05:32:09 10° SSE visible
